FALCON 9 DEB (50211 NORAD) Tracking and Keplerian Element Data

This shows tracking and keplerian element data for the satellite.

Feedback or suggestion? Click here.




ElementValue
Catalog50211
NameFALCON 9 DEB
Epoch Orbit218
Epoch Day364.91792169
Epoch Year2021
RAAN303.1404
Inclination53.2105
Eccentricity0.003851
Argument of Perigee200.457
Mean Anonmoly159.4934
Mean Motion16.28806344
Decay Rate0.02917958
L11 50211U 21125BH 21364.91792169 .02917958 11925-4 55199-3 0 9995
L22 50211 53.2105 303.1404 0038510 200.4570 159.4934 16.28806344 2185



Live tracking and technical data element details for FALCON 9 DEB (NORAD 50211). FALCON 9 DEB can be tracked NOW for your location showing map with azimuth and elevation plus other details from your city location.







IsCatalogInMostPopularTable: catalog: 50211, numindb: 37
Update: records affected: 1



GetName: 50211 FALCON 9 DEB

Hit Count: updated at: Sun, 28 May 2023 19:45:13 GMT